Location: Dos Palmas
(32.4468°N, 116.8732°W)
Time: 19:56:03
(UTC+00:00)

N. Korean satellite - Pass Details

Date: 29 November 2022
Orbit: 407 x 442 km, 97.3° (Epoch: 05 February)

Event Time Altitude Azimuth Distance (km) Brightness Sun altitude
Rises 12:56:31 0° 12° (NNE) 2,519 10.2 -19.3°
Reaches altitude 10° 12:58:35 10° 13° (NNE) 1,634 9.2 -18.9°
Maximum altitude 13:02:06 82° 101° (ESE) 475 6.5 -18.2°
Drops below altitude 10° 13:05:27 11° 189° (S) 1,559 9.2 -17.5°
Sets 13:07:33 0° 191° (S) 2,460 10.2 -17.1°
